[[{"header":{"parameterUnit":"m.s-1","parameterCategory":1,"la1":30.2991,"la2":30.254,"lo1":-89.0895,"lo2":-89.0444,"dy":0.0017,"dx":0.0017,"nx":28,"ny":28,"refTime":"2025-06-02T21:00:00:Z","depth":0,"parameterNumber":2,"parameterNumberName":"U-component_of_WINDS"},"data":[0,0,0,0,0,0,0,0,0,0,0,0,0,0,0,0,0,0,0,0,0,0,0,0,0,0,0,0,0,0,0,0,0,0,0,0,0,0,0,0,0,0,0,0,0,0,0,0,0,0,0,0,0,0,0,0,0,0,-2.8615,-2.8616,0,-2.8696,-2.8697,-2.8697,-2.8654,-2.8651,-2.8649,-2.8647,-2.8729,-2.8733,-2.8738,0,0,0,0,0,0,0,0,0,0,0,0,0,-2.8422,-2.8425,-2.8615,-2.8616,-2.8617,-2.8695,-2.8697,-2.8698,-2.8654,-2.8651,-2.8649,-2.8646,-2.8728,-2.8733,-2.8738,0,0,0,0,0,0,0,0,0,0,0,0,0,-2.8504,-2.8427,-2.8615,-2.8605,-2.8604,-2.8695,-2.8697,-2.8698,-2.8654,-2.8651,-2.8648,-2.8645,-2.8726,-2.8732,-2.8739,-2.8844,0,0,-2.8758,-2.8761,0,0,0,0,0,0,0,0,-2.85,-2.8511,-2.8605,-2.8605,-2.8605,-2.8661,-2.8659,-2.8747,-2.8655,-2.8635,-2.8647,-2.8643,-2.8709,-2.8717,-2.8739,-2.8848,-2.8851,-2.8759,-2.8763,-2.8765,-2.8767,0,0,0,0,0,0,0,-2.8494,-2.8508,-2.8647,-2.8606,-2.8607,-2.8596,-2.8604,-2.8675,-2.869,-2.8637,-2.8634,-2.8644,-2.8709,-2.8733,-2.8741,-2.8853,-2.8759,-2.8764,-2.8768,-2.8771,-2.9051,-2.9054,0,0,0,0,0,0,-2.8489,-2.8503,-2.8644,-2.8649,-2.8543,-2.8602,-2.8611,-2.8647,-2.8689,-2.8692,-2.8647,-2.8642,-2.8724,-2.8733,-2.8744,-2.8869,-2.8765,-2.8771,-2.8775,-2.9047,-2.9051,-2.9055,0,0,0,0,0,0,-2.8485,-2.8502,-2.8641,-2.8575,-2.8592,-2.8609,-2.8649,-2.865,-2.8674,-2.8696,-2.8699,-2.8669,-2.8722,-2.8735,-2.8819,-2.8871,-2.8774,-2.878,-2.9043,-2.9048,-2.9053,-2.9121,0,0,0,0,0,0,-2.848,-2.8501,-2.8541,-2.8577,-2.8596,-2.8716,-2.8652,-2.8654,-2.8685,-2.868,-2.8718,-2.8721,-2.872,-2.881,-2.8825,-2.8878,-2.8785,-2.9038,-2.9045,-2.9052,-2.9114,-2.9128,-2.914,0,0,0,0,0,-2.8473,-2.8557,-2.8544,-2.8561,-2.8647,-2.8719,-2.873,-2.8727,-2.869,-2.873,-2.8744,-2.872,-2.8863,-2.8819,-2.8836,-2.8891,-2.9035,-2.9043,-2.9051,-2.9108,-2.9125,-2.9139,0,0,0,0,0,0,-2.8528,-2.8562,-2.8547,-2.8645,-2.868,-2.8711,-2.8762,-2.8745,-2.879,-2.8783,-2.8777,-2.8786,-2.8874,-2.8891,-2.8842,-2.8995,-2.8943,-2.8955,-2.8981,-2.8997,-2.9009,-2.9003,-2.879,0,0,0,0,0,-2.8551,-2.8607,-2.8634,-2.8718,-2.8736,-2.8746,-2.8777,-2.8772,-2.8807,-2.8821,-2.8842,-2.8877,-2.8929,-2.8964,-2.9014,-2.9116,-2.9124,-2.9163,-2.9176,-2.9186,-2.9196,-2.9251,-2.9268,-2.9082,-2.9082,-2.9082,0,0,-2.86,-2.8626,-2.8661,-2.8729,-2.8755,-2.8813,-2.8759,-2.8822,-2.8864,-2.8831,-2.8912,-2.8928,-2.8967,-2.906,-2.9103,-2.9077,-2.9249,-2.9196,-2.9205,-2.9209,-2.9261,-2.9279,-2.9294,-2.9088,-2.9087,-2.9086,0,0,-2.8719,-2.8744,-2.8817,-2.8844,-2.8883,-2.889,-2.8907,-2.8942,-2.8951,-2.9032,-2.9008,-2.9058,-2.9149,-2.9177,-2.9204,-2.9332,-2.9311,-2.9349,-2.9416,-2.9469,-2.9484,-2.9497,-2.9542,-2.9558,-2.9359,-2.9359,-2.9359,0,-2.8775,-2.8861,-2.8856,-2.8921,-2.8951,-2.8924,-2.8997,-2.9023,-2.9077,-2.9098,-2.9069,-2.9182,-2.9206,-2.9306,-2.9337,-2.936,-2.9379,-2.9344,-2.9482,-2.9495,-2.9507,-2.955,-2.9567,-2.9363,-2.9363,-2.9363,-2.9362,0,-2.8927,-2.8987,-2.9041,-2.9093,-2.913,-2.9198,-2.9204,-2.9241,-2.9232,-2.9242,-2.9324,-2.9352,-2.9406,-2.943,-2.9422,-2.9528,-2.9511,-2.9482,-2.943,-2.9529,-2.9569,-2.9586,-2.937,-2.9368,-2.9367,-2.9366,0,0,-2.9083,-2.9131,-2.9151,-2.9174,-2.9216,-2.9262,-2.9329,-2.9382,-2.9414,-2.9452,-2.9508,-2.9585,-2.9558,-2.9588,-2.9584,-2.963,-2.973,-2.9596,-2.9596,-2.9619,-2.9847,-2.9868,-2.9887,-2.9716,-2.9719,-2.9722,-2.9844,0,-2.9203,-2.9321,-2.9318,-2.9427,-2.9482,-2.9456,-2.9514,-2.9546,-2.9556,-2.9604,-2.9615,-2.967,-2.9631,-2.9649,-2.9694,-2.9708,-2.9775,-2.9699,-2.9767,-2.977,-2.9758,-2.9908,-2.9931,-3.0045,-2.9859,-2.9862,-2.9864,0,-2.936,-2.9403,-2.9517,-2.955,-2.9573,-2.9625,-2.9673,-2.972,-2.9755,-2.9759,-2.9792,-2.978,-2.9847,-2.9793,-2.9886,-2.9834,-2.9862,-2.9873,-2.9877,-2.9883,-2.9822,-2.9918,-3.0081,-3.0098,-2.9889,-2.9887,-2.9885,0,-2.9461,-2.9548,-2.9627,-2.9648,-2.9688,-2.9725,-2.9744,-2.9776,-2.9808,-2.985,-2.987,-2.992,-2.9947,-2.9985,-2.9986,-2.9947,-3.008,-3.0026,-3.0084,-3.0085,-3.0113,-3.0111,-3.0283,-3.0132,-3.0132,-3.0132,-3.0131,0,-2.9596,-2.9667,-2.9673,-2.9722,-2.98,-2.9796,-2.9873,-2.9888,-2.9917,-2.9967,-2.9948,-2.9996,-2.9995,-3.0044,-3.0046,-3.0122,-3.0134,-3.0139,-3.0139,-3.0141,-3.014,-3.0158,-3.015,-3.0136,-3.0135,-3.0134,-3.0134,0,-2.9722,-2.9729,-2.9814,-2.9845,-2.9854,-2.991,-2.9937,-2.9983,-2.9991,-3.0056,-3.0071,-3.0084,-3.014,-3.0145,-3.0211,-3.0212,-3.0304,-3.0295,-3.0292,-3.029,-3.0348,-3.0342,-3.0537,-3.0562,-3.0396,-3.0397,-3.0399,0,-2.9808,-2.9861,-2.9898,-2.993,-2.9951,-3.0004,-3.0036,-3.0034,-3.0069,-3.0112,-3.0153,-3.0207,-3.0251,-3.0342,-3.0357,-3.0407,-3.0399,-3.0464,-3.0406,-3.0406,-3.0399,-3.0396,-3.0401,-3.0475,-3.0477,-3.0478,-3.0479,0,-2.9958,-2.9959,-3.0006,-3.0054,-3.0093,-3.0132,-3.0167,-3.0195,-3.0197,-3.0237,-3.0294,-3.0328,-3.0394,-3.0448,-3.0497,-3.0516,-3.0498,-3.0497,-3.0513,-3.0516,-3.0511,-3.0514,-3.0321,-3.0493,-3.0491,-3.049,-3.049,-3.0489,-3.0066,-3.0112,-3.0145,-3.0198,-3.0224,-3.0258,-3.0302,-3.0316,-3.0364,-3.0418,-3.0414,-3.0477,-3.051,-3.0573,-3.0596,-3.0645,-3.0623,-3.0647,-3.0652,-3.0658,-3.0664,-3.0504,-3.0654,-3.0654,-3.0653,-3.0653,-3.0653,0,-3.0215,-3.0234,-3.0283,-3.0333,-3.0375,-3.0355,-3.0393,-3.0429,-3.0485,-3.0517,-3.056,-3.0625,-3.0677,-3.0697,-3.0747,-3.0783,-3.0776,-3.0796,-3.0793,-3.0798,-3.0681,-3.0661,-3.0801,-3.0801,-3.0801,-3.0801,-3.0801,-3.0801,-3.0297,-3.0374,-3.0378,-3.0468,-3.0487,-3.0548,-3.0572,-3.0602,-3.0628,-3.0702,-3.0745,-3.0757,-3.0784,-3.0836,-3.0883,-3.0887,-3.0907,-3.093,-3.0931,-3.0821,-3.0806,-3.0792,-3.0774,-3.0935,-3.0935,-3.1044,-3.1045,-3.1046]},{"header":{"parameterUnit":"m.s-1","parameterCategory":1,"la1":30.2991,"la2":30.254,"lo1":-89.0895,"lo2":-89.0444,"dy":0.0017,"dx":0.0017,"nx":28,"ny":28,"refTime":"2025-06-02T21:00:00:Z","depth":0,"parameterNumber":3,"parameterNumberName":"V-component_of_WINDS"},"data":[0,0,0,0,0,0,0,0,0,0,0,0,0,0,0,0,0,0,0,0,0,0,0,0,0,0,0,0,0,0,0,0,0,0,0,0,0,0,0,0,0,0,0,0,0,0,0,0,0,0,0,0,0,0,0,0,0,0,0.8648,0.8648,0,0.8599,0.8599,0.8598,0.8537,0.8536,0.8536,0.8535,0.8483,0.8482,0.8482,0,0,0,0,0,0,0,0,0,0,0,0,0,0.8687,0.8687,0.8648,0.8648,0.8647,0.86,0.8599,0.8598,0.8538,0.8536,0.8535,0.8534,0.8483,0.8482,0.8482,0,0,0,0,0,0,0,0,0,0,0,0,0,0.8658,0.8687,0.8648,0.8611,0.8607,0.86,0.8599,0.8598,0.8538,0.8536,0.8535,0.8534,0.8483,0.8483,0.8482,0.8506,0,0,0.848,0.8479,0,0,0,0,0,0,0,0,0.8659,0.8656,0.8617,0.8614,0.8609,0.8573,0.8594,0.8567,0.8538,0.8564,0.8535,0.8533,0.8514,0.8511,0.8505,0.8504,0.8502,0.848,0.8479,0.8479,0.8479,0,0,0,0,0,0,0,0.8661,0.8658,0.8629,0.8617,0.8612,0.8596,0.859,0.8588,0.8548,0.8562,0.8557,0.8552,0.8511,0.8505,0.8503,0.8501,0.848,0.8479,0.8478,0.8478,0.8517,0.8519,0,0,0,0,0,0,0.8669,0.866,0.863,0.8627,0.8631,0.8597,0.859,0.8586,0.8548,0.854,0.8554,0.855,0.8507,0.8504,0.8501,0.8526,0.8479,0.8478,0.8478,0.8516,0.8518,0.8519,0,0,0,0,0,0,0.867,0.8667,0.8632,0.8642,0.8637,0.8598,0.8594,0.8586,0.858,0.8541,0.8534,0.8555,0.8506,0.8502,0.8505,0.8524,0.8478,0.8477,0.8514,0.8516,0.8518,0.8578,0,0,0,0,0,0,0.8672,0.8668,0.8677,0.8643,0.8637,0.8638,0.8595,0.8586,0.8579,0.8573,0.8541,0.8534,0.8505,0.8507,0.8505,0.8522,0.8477,0.8512,0.8515,0.8518,0.8575,0.8582,0.8589,0,0,0,0,0,0.8673,0.8696,0.8678,0.8675,0.8647,0.864,0.8636,0.8602,0.8581,0.8589,0.8565,0.8535,0.8523,0.8508,0.8505,0.8522,0.8511,0.8514,0.8518,0.8571,0.8581,0.8589,0,0,0,0,0,0,0.8732,0.869,0.867,0.8683,0.8665,0.8629,0.8639,0.8613,0.8601,0.8596,0.8555,0.8548,0.8556,0.854,0.8524,0.8544,0.8512,0.8515,0.8554,0.8563,0.857,0.8573,0.8476,0,0,0,0,0,0.8747,0.8745,0.8708,0.8722,0.8715,0.8679,0.8674,0.865,0.863,0.8622,0.8597,0.8579,0.857,0.8566,0.8556,0.8572,0.8564,0.8583,0.859,0.8596,0.8599,0.8605,0.8613,0.853,0.853,0.853,0,0,0.8776,0.8753,0.8754,0.8733,0.8717,0.8715,0.8673,0.8672,0.867,0.8622,0.8623,0.8605,0.8581,0.8591,0.8594,0.8578,0.862,0.86,0.8606,0.8605,0.861,0.8618,0.8625,0.8532,0.8532,0.8532,0,0,0.8829,0.8812,0.8822,0.8807,0.8783,0.8759,0.8761,0.8729,0.8716,0.8717,0.868,0.8677,0.8664,0.8648,0.8639,0.8687,0.8658,0.8685,0.8722,0.8729,0.8736,0.8741,0.8757,0.8764,0.8688,0.8688,0.8688,0,0.8869,0.8865,0.883,0.8832,0.8824,0.878,0.879,0.8776,0.875,0.8745,0.8727,0.871,0.8691,0.8696,0.8708,0.8702,0.8703,0.8688,0.8738,0.8743,0.8748,0.8763,0.8769,0.8691,0.8691,0.869,0.869,0,0.8915,0.8913,0.8923,0.89,0.8893,0.8899,0.8864,0.8861,0.8838,0.8815,0.8817,0.8793,0.8778,0.8777,0.8754,0.878,0.877,0.8746,0.8713,0.8759,0.8773,0.8778,0.8696,0.8695,0.8694,0.8693,0,0,0.9002,0.896,0.8964,0.8953,0.8924,0.8921,0.8925,0.8911,0.8909,0.8892,0.8894,0.8884,0.8861,0.8851,0.8825,0.8832,0.887,0.8806,0.8805,0.8818,0.8896,0.8914,0.8921,0.8852,0.8853,0.8854,0.8898,0,0.9049,0.9053,0.9022,0.9034,0.9031,0.8991,0.8994,0.8976,0.8956,0.895,0.8927,0.8921,0.8892,0.8885,0.8889,0.8865,0.8885,0.8861,0.8852,0.8852,0.8858,0.8928,0.8947,0.8989,0.8903,0.8904,0.8904,0,0.9104,0.9091,0.9104,0.9074,0.9071,0.9075,0.9059,0.9054,0.9033,0.9018,0.9007,0.8978,0.8979,0.8949,0.8949,0.8934,0.8928,0.8916,0.8916,0.8913,0.888,0.8926,0.9002,0.9008,0.8912,0.8912,0.8911,0,0.9165,0.9152,0.9157,0.9149,0.9115,0.9118,0.9104,0.9081,0.9074,0.9061,0.9056,0.9042,0.9035,0.9024,0.8993,0.8974,0.8996,0.8964,0.8983,0.8984,0.8988,0.8988,0.9064,0.8987,0.8987,0.8987,0.8986,0,0.922,0.9229,0.9184,0.9188,0.9196,0.916,0.917,0.9151,0.9132,0.9131,0.9095,0.9094,0.9053,0.9047,0.9022,0.9026,0.9023,0.901,0.9003,0.9013,0.9014,0.9008,0.9003,0.8988,0.8988,0.8987,0.8987,0,0.929,0.9261,0.9264,0.9231,0.9223,0.9231,0.9203,0.9204,0.9182,0.9181,0.9178,0.9143,0.9135,0.9103,0.9087,0.907,0.9081,0.9068,0.9088,0.9084,0.9104,0.9103,0.9177,0.9185,0.9104,0.9105,0.9106,0,0.9326,0.9332,0.9301,0.9298,0.9285,0.9281,0.9274,0.9239,0.9233,0.921,0.9214,0.9203,0.9192,0.9181,0.9153,0.9141,0.9127,0.9154,0.9124,0.9134,0.9126,0.9126,0.9126,0.916,0.9161,0.9162,0.9163,0,0.9394,0.9379,0.9371,0.9358,0.9352,0.9339,0.9325,0.9325,0.9285,0.9281,0.9272,0.9264,0.9248,0.9237,0.922,0.9205,0.9177,0.9172,0.9176,0.9185,0.9196,0.919,0.9105,0.917,0.917,0.9169,0.9169,0.9168,0.9447,0.9451,0.9429,0.9421,0.9407,0.9395,0.9395,0.9373,0.9365,0.935,0.933,0.9324,0.9302,0.9277,0.9263,0.9257,0.9242,0.9248,0.9249,0.925,0.9255,0.9198,0.9254,0.9254,0.9254,0.9254,0.9253,0,0.9512,0.9497,0.949,0.9472,0.9466,0.9441,0.9424,0.9421,0.9416,0.9399,0.9389,0.9379,0.9369,0.9341,0.9328,0.9328,0.9315,0.9326,0.9325,0.9322,0.927,0.9267,0.9337,0.9337,0.9337,0.9337,0.9337,0.9337,0.9545,0.955,0.9533,0.9529,0.9513,0.9508,0.95,0.9488,0.9474,0.9465,0.9457,0.9439,0.9417,0.9402,0.9391,0.9383,0.9379,0.9394,0.9382,0.9333,0.9325,0.9318,0.9316,0.9394,0.9394,0.9434,0.9435,0.9435]}]]